Location: Les Chemineaux
(47.3024°N, 1.5104°E)
Time: 06:10:38
(UTC+00:00)

Cosmos 1842 Rocket - Pass Details

Date: 19 May 2025
Orbit: 600 x 626 km, 82.5° (Epoch: 18 June)

Event Time Altitude Azimuth Distance (km) Brightness Sun altitude
Exits shadow 23:02:49 51° 230° (SW) 765 3.8 -21.9°
Maximum altitude 23:03:40 63° 281° (W) 674 3.7 -21.9°
Drops below altitude 10° 23:07:57 10° 3° (N) 1,955 7.2 -22.0°
Sets 23:10:12 0° 7° (N) 2,864 8.3 -22.1°
